| time (UTC) | temp C | wind direction | speed KPH | gust KPH | rain 1hr cm | rain 24hr cm | rain mn cm | humidity % | barometer mb |
| 20260507113627 | -17 | 286 | 1.6 | 3.2 | 0.00 | 0.05 | 0.00 | ||
| 20260507112639 | -17 | 163 | 1.6 | 3.2 | 0.00 | 0.05 | 0.00 | ||
| 20260507111525 | -17 | 283 | 1.6 | 3.2 | 0.00 | 0.05 | 0.00 | ||
| 20260507110618 | -17 | 194 | 3.2 | 6.4 | 0.00 | 0.05 | 0.00 | ||
| 20260507105623 | -17 | 269 | 3.2 | 4.8 | 0.00 | 0.13 | 0.00 | ||
| 20260507104617 | -17 | 197 | 1.6 | 6.4 | 0.00 | 0.13 | 0.00 | ||
| 20260507103523 | -17 | 161 | 3.2 | 6.4 | 0.00 | 0.13 | 0.00 | ||
| 20260507101520 | -17 | 188 | 1.6 | 3.2 | 0.00 | 0.13 | 0.00 | ||
| 20260507100645 | -17 | 242 | 1.6 | 3.2 | 0.00 | 0.13 | 0.00 | ||
| 20260507095519 | -17 | 186 | 3.2 | 4.8 | 0.00 | 0.13 | 0.00 | ||
| 20260507092523 | -17 | 234 | 3.2 | 4.8 | 0.00 | 0.18 | 0.00 | ||
| 20260507091618 | -17 | 247 | 3.2 | 6.4 | 0.00 | 0.18 | 0.00 | ||
| 20260507090523 | -17 | 358 | 3.2 | 8.0 | 0.00 | 0.18 | 0.00 | ||
| 20260507085518 | -17 | 209 | 3.2 | 4.8 | 0.00 | 0.18 | 0.00 | ||
| 20260507084522 | -17 | 229 | 3.2 | 3.2 | 0.00 | 0.18 | 0.00 | ||
| 20260507083516 | -17 | 268 | 1.6 | 4.8 | 0.00 | 0.18 | 0.00 | ||
| 20260507082622 | -17 | 210 | 1.6 | 6.4 | 0.00 | 0.18 | 0.00 | ||
| 20260507075522 | -17 | 211 | 1.6 | 4.8 | 0.00 | 0.25 | 0.00 | ||
| 20260507072517 | -17 | 252 | 3.2 | 4.8 | 0.00 | 0.30 | 0.00 | ||
| 20260507070517 | -17 | 274 | 3.2 | 3.2 | 0.00 | 0.30 | 0.00 | ||
| 20260507065523 | -17 | 245 | 3.2 | 8.0 | 0.00 | 0.30 | 0.00 | ||
| 20260507064517 | -17 | 209 | 1.6 | 8.0 | 0.00 | 0.38 | 0.00 | ||
| 20260507062517 | -17 | 274 | 1.6 | 1.6 | 0.00 | 0.51 | 0.00 | ||
| 20260507061623 | -17 | 225 | 1.6 | 4.8 | 0.00 | 0.51 | 0.00 | ||
| 20260507060517 | -17 | 238 | 1.6 | 3.2 | 0.00 | 0.51 | 0.00 | ||
| 20260507055643 | -17 | 255 | 1.6 | 3.2 | 0.00 | 0.58 | 0.00 | ||
| 20260507054618 | -17 | 206 | 1.6 | 4.8 | 0.00 | 0.58 | 0.00 | ||
| 20260507053522 | -17 | 213 | 0.0 | 1.6 | 0.00 | 0.58 | 0.00 | ||
| 20260507052516 | -17 | 233 | 1.6 | 1.6 | 0.00 | 0.58 | 0.00 | ||
| 20260507051622 | -17 | 219 | 1.6 | 4.8 | 0.00 | 0.64 | 0.00 | ||
| 20260507050617 | -17 | 230 | 0.0 | 1.6 | 0.00 | 0.64 | 0.00 | ||
| 20260507045622 | -17 | 214 | 0.0 | 1.6 | 0.00 | 0.71 | 0.00 | ||
| 20260507043520 | -17 | 288 | 1.6 | 1.6 | 0.00 | 0.71 | 0.00 | ||
| 20260507041519 | -17 | 194 | 0.0 | 3.2 | 0.00 | 0.79 | 0.00 | ||
| 20260507040624 | -17 | 262 | 1.6 | 3.2 | 0.00 | 0.84 | 0.00 | ||
| 20260507034522 | -17 | 218 | 1.6 | 3.2 | 0.00 | 0.84 | 0.00 | ||
| 20260507033517 | -17 | 21 | 1.6 | 6.4 | 0.00 | 0.91 | 0.00 | ||
| 20260507032621 | -17 | 214 | 1.6 | 3.2 | 0.00 | 0.97 | 0.00 | ||
| 20260507031627 | -17 | 233 | 1.6 | 3.2 | 0.00 | 1.04 | 0.00 | ||
| 20260507030521 | -17 | 252 | 1.6 | 3.2 | 0.00 | 1.12 | 0.00 | ||
| 20260507025616 | -17 | 183 | 1.6 | 3.2 | 0.00 | 1.12 | 0.00 | ||
| 20260507024622 | -17 | 210 | 1.6 | 4.8 | 0.00 | 1.12 | 0.00 | ||
| 20260507023527 | -17 | 187 | 1.6 | 6.4 | 0.00 | 1.17 | 0.00 | ||
| 20260507022619 | -17 | 222 | 1.6 | 6.4 | 0.00 | 1.17 | 0.00 | ||
| 20260507021624 | -17 | 257 | 1.6 | 3.2 | 0.00 | 1.24 | 0.00 | ||
| 20260507014616 | -17 | 223 | 1.6 | 4.8 | 0.00 | 1.24 | 0.00 | ||
| 20260507013523 | -17 | 317 | 1.6 | 3.2 | 0.00 | 1.24 | 0.00 | ||
| 20260507012616 | -17 | 240 | 1.6 | 4.8 | 0.00 | 1.24 | 0.00 | ||
| 20260507011522 | -17 | 293 | 3.2 | 3.2 | 0.00 | 1.24 | 0.00 | ||
| 20260507010517 | -17 | 274 | 1.6 | 4.8 | 0.00 | 1.24 | 0.00 | ||
| 20260507004627 | -17 | 186 | 1.6 | 6.4 | 0.00 | 1.24 | 0.00 | ||
| 20260507003630 | -17 | 246 | 1.6 | 4.8 | 0.00 | 1.24 | 0.00 | ||
| 20260507002530 | -17 | 208 | 1.6 | 3.2 | 0.00 | 1.24 | 0.00 | ||
| 20260507001619 | -17 | 261 | 1.6 | 3.2 | 0.00 | 1.24 | 0.00 | ||
| 20260507000525 | -17 | 273 | 1.6 | 4.8 | 0.00 | 1.24 | 0.00 | ||
| 20260506233518 | -17 | 226 | 1.6 | 3.2 | 0.00 | 1.24 | 0.00 | ||
| 20260506232529 | -17 | 175 | 1.6 | 3.2 | 0.00 | 1.24 | 0.00 | ||
| 20260506231518 | -17 | 246 | 3.2 | 4.8 | 0.00 | 1.24 | 0.00 | ||
| 20260506230523 | -17 | 200 | 1.6 | 4.8 | 0.00 | 1.24 | 0.00 | ||
| 20260506225517 | -17 | 236 | 1.6 | 4.8 | 0.00 | 1.24 | 0.00 | ||
| 20260506224641 | -17 | 244 | 0.0 | 3.2 | 0.00 | 1.24 | 0.00 | ||
| 20260506223524 | -17 | 234 | 1.6 | 3.2 | 0.00 | 1.24 | 0.00 | ||
| 20260506222617 | -17 | 259 | 0.0 | 1.6 | 0.00 | 1.24 | 0.00 | ||
| 20260506221522 | -17 | 237 | 1.6 | 3.2 | 0.00 | 1.24 | 0.00 | ||
| 20260506220517 | -17 | 145 | 0.0 | 1.6 | 0.00 | 1.24 | 0.00 | ||
| 20260506213523 | -17 | 223 | 1.6 | 3.2 | 0.00 | 1.24 | 1.24 | ||
| 20260506212517 | -17 | 243 | 1.6 | 3.2 | 0.00 | 1.24 | 1.24 | ||
| 20260506211623 | -17 | 212 | 1.6 | 4.8 | 0.05 | 1.24 | 1.24 | ||
| 20260506205622 | -17 | 271 | 0.0 | 3.2 | 0.05 | 1.24 | 1.24 | ||
| 20260506204525 | -17 | 201 | 1.6 | 1.6 | 0.05 | 1.24 | 1.24 | ||
| 20260506203518 | -17 | 227 | 1.6 | 6.4 | 0.05 | 1.24 | 1.24 | ||
| 20260506202523 | -17 | 0.0 | 0.0 | 0.05 | 1.24 | 1.24 | |||
| 20260506200621 | -17 | 0.0 | 0.0 | 0.00 | 1.17 | 1.17 | |||
| 20260506194517 | -17 | 0.0 | 0.0 | 0.00 | 1.17 | 1.17 | |||
| 20260506193521 | -17 | 0.0 | 0.0 | 0.00 | 1.17 | 1.17 | |||
| 20260506191620 | -17 | 0.0 | 0.0 | 0.00 | 1.17 | 1.17 | |||
| 20260506190525 | -17 | 0.0 | 0.0 | 0.00 | 1.24 | 1.17 | |||
| 20260506185532 | -17 | 0.0 | 0.0 | 0.00 | 1.24 | 1.17 | |||
| 20260506184515 | -17 | 247 | 1.6 | 1.6 | 0.00 | 1.24 | 1.17 | ||
| 20260506183622 | -17 | 247 | 1.6 | 1.6 | 0.00 | 1.24 | 1.17 | ||
| 20260506182625 | -17 | 293 | 1.6 | 3.2 | 0.00 | 1.24 | 1.17 | ||
| 20260506181526 | -17 | 225 | 1.6 | 3.2 | 0.00 | 1.24 | 1.17 | ||
| 20260506180620 | -17 | 252 | 0.0 | 3.2 | 0.00 | 1.24 | 1.17 | ||
| 20260506175526 | -17 | 236 | 0.0 | 1.6 | 0.00 | 1.24 | 1.17 | ||
| 20260506174520 | -17 | 227 | 0.0 | 3.2 | 0.00 | 1.24 | 1.17 | ||
| 20260506173525 | -17 | 266 | 0.0 | 3.2 | 0.00 | 1.24 | 1.17 | ||
| 20260506172620 | -17 | 223 | 0.0 | 1.6 | 0.00 | 1.24 | 1.17 | ||
| 20260506171525 | -17 | 288 | 1.6 | 4.8 | 0.00 | 1.24 | 1.17 | ||
| 20260506164519 | -17 | 261 | 1.6 | 3.2 | 0.00 | 1.24 | 1.17 | ||
| 20260506163525 | -17 | 286 | 0.0 | 3.2 | 0.00 | 1.24 | 1.17 | ||
| 20260506161624 | -17 | 232 | 1.6 | 3.2 | 0.00 | 1.24 | 1.17 | ||
| 20260506160517 | -17 | 216 | 0.0 | 3.2 | 0.00 | 1.24 | 1.17 | ||
| 20260506155521 | -17 | 253 | 0.0 | 1.6 | 0.00 | 1.24 | 1.17 | ||
| 20260506153519 | -17 | 215 | 0.0 | 1.6 | 0.00 | 1.24 | 1.17 | ||
| 20260506151518 | -17 | 222 | 0.0 | 3.2 | 0.00 | 1.24 | 1.17 | ||
| 20260506150523 | -17 | 315 | 0.0 | 3.2 | 0.00 | 1.24 | 1.17 | ||
| 20260506145617 | -17 | 258 | 0.0 | 1.6 | 0.00 | 1.24 | 1.17 | ||
| 20260506143516 | -17 | 265 | 1.6 | 3.2 | 0.00 | 1.24 | 1.17 | ||
| 20260506142623 | -17 | 175 | 1.6 | 4.8 | 0.00 | 1.24 | 1.17 | ||
| 20260506141518 | -17 | 244 | 1.6 | 4.8 | 0.00 | 1.24 | 1.17 | ||
| 20260506140523 | -17 | 280 | 0.0 | 3.2 | 0.00 | 1.24 | 1.17 | ||
| 20260506135618 | -17 | 257 | 0.0 | 3.2 | 0.00 | 1.24 | 1.17 | ||
| 20260506134522 | -17 | 235 | 0.0 | 1.6 | 0.00 | 1.24 | 1.17 | ||
| 20260506133627 | -17 | 220 | 0.0 | 3.2 | 0.00 | 1.24 | 1.17 | ||
| 20260506132520 | -17 | 228 | 0.0 | 1.6 | 0.00 | 1.24 | 1.17 | ||
| 20260506131530 | -17 | 192 | 1.6 | 1.6 | 0.00 | 1.24 | 1.17 | ||
| 20260506130625 | -17 | 216 | 1.6 | 4.8 | 0.00 | 1.24 | 1.17 | ||
| 20260506125631 | -17 | 226 | 1.6 | 3.2 | 0.00 | 1.24 | 1.17 | ||
| 20260506124620 | -17 | 184 | 0.0 | 3.2 | 0.00 | 1.24 | 1.17 | ||
| 20260506123516 | -17 | 208 | 0.0 | 1.6 | 0.00 | 1.24 | 1.17 | ||
| 20260506121626 | -17 | 285 | 1.6 | 3.2 | 0.00 | 1.24 | 1.17 | ||
| 20260506120519 | -17 | 234 | 0.0 | 3.2 | 0.00 | 1.24 | 1.17 | ||
| 20260506115525 | -17 | 266 | 0.0 | 1.6 | 0.05 | 1.24 | 1.17 |